Location: Acequia del Cap
(41.7000°N, 0.6167°E)
Time: 16:28:02
(UTC+00:00)

Cosmos 1455 Rocket - Pass Details

Date: 07 August 2020
Orbit: 604 x 630 km, 82.5° (Epoch: 22 September)

Event Time Altitude Azimuth Distance (km) Brightness Sun altitude
Exits shadow 03:11:32 34° 248° (WSW) 1,036 3.7 -17.5°
Maximum altitude 03:12:38 40° 283° (WNW) 926 3.7 -17.4°
Drops below altitude 10° 03:16:50 10° 353° (N) 2,009 6.1 -16.8°
Sets 03:19:12 0° 1° (N) 2,924 7.2 -16.5°
